Location: Chenereilles
(45.4866°N, 4.0790°E)
Time: 02:11:51
(UTC+00:00)

CZ-4 R/B - Pass Details

Date: 12 November 2019
Orbit: 530 x 601 km, 97.7° (Epoch: 14 December)

Event Time Altitude Azimuth Distance (km) Brightness Sun altitude
Rises 16:53:27 0° 128° (SE) 2,830 4.6 -6.8°
Reaches altitude 10° 16:56:04 10° 112° (ESE) 1,925 3.6 -7.2°
Maximum altitude 16:59:07 20° 65° (ENE) 1,383 2.7 -7.7°
Drops below altitude 10° 17:02:09 10° 18° (NNE) 1,911 3.7 -8.2°
Sets 17:04:43 0° 1° (N) 2,802 4.7 -8.6°
